Simultaneous Nadir Overpasses (SNOs) Predictions

Prediction of SNOs between GOES-17 and LANDSAT-8 Satellite Orbit:

Table of predicted SNOs for the next 14.0 days since TLE Epoch: 11/16/2024
Index Date Time (GOES-17) GOES-17 Lat,Lon LANDSAT-8 Lat,Lon Distance(km) Time Diff (sec)
1 11/17/2024 17:10:04 0.00,-104.71 0.01,-104.76 5.73 80
2 11/19/2024 17:00:35 -0.00,-104.70 -0.59,-101.81 328.29 80
3 11/20/2024 05:22:00 0.01,-104.65 -0.51,-107.00 267.55 80
4 11/22/2024 05:07:11 0.01,-104.65 0.14,-104.06 67.24 80
5 11/24/2024 04:55:01 0.01,-104.65 0.75,-101.10 402.78 80
6 11/24/2024 17:16:17 -0.01,-104.69 0.34,-106.26 179.04 80
7 11/26/2024 17:06:47 -0.01,-104.69 -0.30,-103.31 157.11 80
8 11/27/2024 05:28:10 0.01,-104.66 -0.82,-108.50 437.11 80
9 11/28/2024 16:54:36 -0.01,-104.70 -0.92,-100.35 493.41 80
10 11/29/2024 05:15:59 0.02,-104.66 -0.20,-105.54 101.02 80
